Regional Weather Roundup
Issued by NWS

Home | Current Version | Previous Version | Text Only | Print | Product List | Glossary Off
Versions: 1 2 3 4 5 6 7 8 9 10 11 12 13 14 15 16 17 18 19 20 21 22 23 24 25 26 27 28 29 30 31 32 33 34 35 36 37 38 39 40 41 42 43 44 45 46 47 48 49 50

000
ASUS43 KLMK 300902
RWRKY
KENTUCKY REGIONAL WEATHER ROUNDUP
NATIONAL WEATHER SERVICE LOUISVILLE KY
500 AM EDT THU JUL 30 2015

NOTE "FAIR" INDICATES FEW OR NO CLOUDS BELOW 12,000 FEET
WITH NO SIGNIFICANT WEATHER AND/OR OBSTRUCTIONS TO VISIBILITY.

KYZ001>023-026-027-061>063-070>075-301000-
WESTERN AND SOUTH CENTRAL KENTUCKY

CITY           SKY/WX    TMP DP  RH WIND       PRES   REMARKS
PADUCAH        CLEAR     73  64  73 N7        30.07S
HENDERSON      PTCLDY    70  61  73 NW5       30.07R
OWENSBORO      MOCLDY    73  66  78 N5        30.07R
HOPKINSVILLE   MOCLDY    74  70  87 N9        30.04R
BOWLING GREEN  CLOUDY    77  72  84 N5        30.04R
GLASGOW        NOT AVBL
$$

KYZ024-025-028>034-038-045-046-053-301000-
NORTH CENTRAL KENTUCKY

CITY           SKY/WX    TMP DP  RH WIND       PRES   REMARKS
LOUISVILLE/SDF MOCLDY    75  60  59 N7        30.03R
LOUISVILLE/LOU MOCLDY    74  63  68 NW5       30.04R
FORT KNOX      PTCLDY    71  65  82 NW7       30.03S
$$

KYZ035>037-039>044-047>052-055>060-089>105-301000-
NORTHEAST KENTUCKY

CITY           SKY/WX    TMP DP  RH WIND       PRES   REMARKS
LEXINGTON      MOCLDY    73  69  87 NW8       30.02R
COVINGTON      MOCLDY    71  61  70 NW5       30.02R
FRANKFORT      MOCLDY    71  66  84 NW6       30.02R
$$

KYZ054-064>069-076>088-106>120-301000-
SOUTHEAST KENTUCKY

CITY           SKY/WX    TMP DP  RH WIND       PRES   REMARKS
JACKSON        CLOUDY    72  68  87 CALM      30.03R
LONDON         CLOUDY    74  68  81 W3        30.03S
SOMERSET       NOT AVBL
MIDDLESBORO    MOCLDY    72  71  96 CALM      30.03R
MONTICELLO     PTSUNNY   73  73 100 CALM      30.06S
$$



USA.gov is the U.S. government's official web portal to all federal, state and local government web resources and services.